sat.trackr.live / text

‹ back to catalog

STARLINK-34240

NORAD 64265 · 2025-120K

PAYLOAD ACTIVE UNKNOWN

§ Identity

Operator
Country
US
Launch date
2025-06-04
Launch site
AFWTR
Launch vehicle
Mass (kg)
RCS (m²)

Purposes: comms

External: N2YO · Heavens-Above · Gunter

§ Orbital elements

Epoch: 2026-09-20T05:20:20.360832Z

Period
93.85 min
Inclination
53.1601°
Eccentricity
0.0002000
Mean motion
15.34383597 rev/d
Perigee alt
461.4 km
Apogee alt
464.1 km
Semi-major
6,840.9 km
B*
5.7000e-4
RAAN
290.7244°
Arg perigee
48.8619°
Mean anomaly
311.2556°
Rev number
7,373

§ Raw data

STARLINK-342401 64265U 25120K   26263.22245788  .00018921  00000+0  57000-3 0  99952 64265  53.1601 290.7244 0002000  48.8619 311.2556 15.34383597 73738

JSON: /api/v1/satellites/64265 · /tle

For live sub-satellite position, see the globe view (requires WebGL).

§ Visibility from observer

Set your observer location to see the next 7 days of passes ≥ 10°. The values pass through the URL so the page stays shareable.

No JS? Fill the form by hand. The geolocation button needs JavaScript.